Location: Lynch Observatory
(39.9540°N, 75.1861°W)
Time: 20:06:21
(UTC-04:00)

UWE-3 - Pass Details

Date: 26 April 2024
Orbit: 569 x 651 km, 97.8° (Epoch: 28 May)

Event Time Altitude Azimuth Distance (km) Brightness Sun altitude
Rises 04:28:21 0° 358° (N) 2,874 ? -17.5°
Reaches altitude 10° 04:30:51 10° 344° (NNW) 1,980 ? -17.2°
Maximum altitude 04:34:15 23° 292° (WNW) 1,323 ? -16.6°
Enters shadow 04:34:59 22° 276° (W) 1,364 ? -16.5°
